FENGYUN 1C DEB

Satellite information

Favourite Embed

Satellite Type and Status

DEBRISIN ORBIT

Key statistics

Satellite FENGYUN 1C DEB at a glance.

Uptime

9659

Days in orbit

Revolutions

≈ 14.1

Per day

Orbit

SSO

Sun Synchronous Orbit

Inclination

99.1

Latest

Satellite identification and parameters

Extended collection of information and parameters for FENGYUN 1C DEB.

Object identification

Identified? True

Debris? True

Object name: FENGYUN 1C DEB

International designator: 1999-025ZL

Object number (NORAD): 30299

Object ID (CCSDS): 30299

Country: PEOPLES REPUBLIC OF CHINA (PRC)

Current information (Y/N): Y

RCS size: SMALL

Orbital parameters

Period: 102.321 minutes

Inclination: 99.098 deg

SMA: 7246.642 km

Apoapsis: 946.13 km

Periapsis: 790.884 km

RAAN: 3.5317 deg

Eccentricy: 0.01071159

Argument of periapsis: 161.3617 deg

Mean anomaly: 352.6908 deg

Mean motion: 14.07335085 rev/day

Mean motion (dot): 0.00004695 rev/day2

B* drag term: 0.0026765975 1/REarth

Two-line elements (TLE)

Creation date: Oct. 19, 2025, 2:20 a.m.

Reference frame: TEME

Reference center: EARTH

Epoch: Oct. 18, 2025, 4:12 p.m. UTC

TLE line 0: 0 FENGYUN 1C DEB

TLE line 1: 1 30299U 99025ZL 25291.67502086 .00004695 00000-0 26766-2 0 9994

TLE line 2: 2 30299 99.0980 3.5317 0107116 161.3617 352.6908 14.07335085955154

Live tracking on map

Real-time ground track for satellite FENGYUN 1C DEB.

In-orbit conjunctions

A list of the most updated potential collisions computed for object FENGYUN 1C DEB.

Target Orbit TCA Probability of collision Miss distance Type
FENGYUN 1C DEB SSO 2025-06-26 06:22:54 0.0001384447 164.0 (m) DEBRIS
THORAD AGENA D DEB SSO 2024-08-15 13:53:37 0.0001119415 324.0 (m) DEBRIS
QUAKESAT SSO 2024-08-03 01:06:28 0.0001123935 689.0 (m) PAYLOAD

Associated space launch

Chinese polar orbiting meteorological satellite

FENGYUN 1C DEB was lifted into orbit during the mission ‘Long March 4B | Feng Yun 1C’, on board a Long March 4B space rocket.

The launch took place on May 10, 1999, 1:33 a.m. from Launch Complex 7.

For more information about the launch, click the button.

Launch to space Long March 4B | Feng Yun 1C
Long March 4B | Feng Yun 1C

Agency: N/A

Status: Launch Successful

Launch date: May 10, 1999, 1:33 a.m. UTC

Rocket: Long March 4B

Launch pad: Launch Complex 7

Location: Taiyuan Satellite Launch Center, People's Republic of China

...

Latest news about this satellite

There are no fresh news available about this satellite. Check back as we update our databases every day.


Newsletter sign-up

Weekly statistics, charts and insights to help you stay on top of the space industry.